Date String (YYYY-MM-DD hh:mm:ss) UTC,Instrument flags,Ambient pressure (hPa),Sample flow (lpm),Bypass flow (lpm),Sample temperature (°C),Ambient temperature (°C),ASC tube jacket temperature (°C),LED temperature (°C),Box temperature (°C),Sample RH (%),Span deviation,Mass concentration (μg/m³),Mass concentration (μg/m³),Mass concentration (μg/m³)
DateTimeUTC,F1_M11,P_M11,Q1_M11,Q2_M11,T1_M11,T2_M11,T3_M11,T4_M11,T5_M11,U1_M11,ZSPAN_M11,X0_M11,X2_M11,X1_M11
2021-10-28 01:00:00,,0825.1,5.00,0.00,28.1,27.2,00.0,37.1,29.9,09.6,0000.0,0008.32,0001.25,0000.77
2021-10-28 01:01:00,,0825.2,5.00,0.00,28.1,27.2,00.0,37.1,29.9,09.6,0000.0,0008.38,0001.25,0000.77
2021-10-28 01:02:00,,0825.2,5.00,0.00,28.1,27.2,00.0,37.1,29.9,09.6,0000.0,0007.44,0001.29,0000.78
2021-10-28 01:03:00,,0825.2,5.00,0.00,28.1,27.2,00.0,37.1,29.9,09.7,0000.0,0006.55,0001.28,0000.78
2021-10-28 01:04:00,,0825.2,4.99,0.00,28.1,27.2,00.0,37.1,29.9,09.7,0000.0,0006.62,0001.33,0000.78
2021-10-28 01:05:00,,0825.2,5.00,0.00,28.1,27.2,00.0,37.1,29.9,09.7,0000.0,0006.84,0001.39,0000.78
2021-10-28 01:06:00,,0825.2,4.99,0.00,28.1,27.2,00.0,37.1,29.9,09.7,0000.0,0007.14,0001.43,0000.77
2021-10-28 01:07:00,,0825.2,5.00,0.00,28.1,27.2,00.0,37.1,29.9,09.7,0000.0,0007.15,0001.41,0000.76
2021-10-28 01:08:00,,0825.1,5.01,0.00,28.1,27.2,00.0,37.1,29.9,09.7,0000.0,0005.71,0001.42,0000.76
2021-10-28 01:09:00,,0825.0,5.01,0.00,28.1,27.2,00.0,37.1,29.8,09.7,0000.0,0005.11,0001.39,0000.75
2021-10-28 01:10:00,,0824.9,4.99,0.00,28.1,27.2,00.0,37.1,29.8,09.7,0000.0,0004.96,0001.39,0000.75
2021-10-28 01:11:00,,0825.1,5.00,0.00,28.0,27.1,00.0,37.1,29.8,09.8,0000.0,0004.54,0001.40,0000.75
2021-10-28 01:12:00,,0825.1,5.00,0.00,28.0,27.1,00.0,37.1,29.8,09.7,0000.0,0004.65,0001.42,0000.74
2021-10-28 01:13:00,,0825.2,5.00,0.00,28.0,27.1,00.0,37.1,29.8,09.8,0000.0,0005.87,0001.41,0000.73
2021-10-28 01:14:00,,0825.2,5.01,0.00,28.0,27.1,00.0,37.1,29.8,09.9,0000.0,0005.95,0001.40,0000.72
2021-10-28 01:15:00,,0825.2,5.00,0.00,28.0,27.1,00.0,37.1,29.8,09.9,0000.0,0005.90,0001.35,0000.71
2021-10-28 01:16:00,,0825.2,4.99,0.00,28.0,27.1,00.0,37.1,29.8,09.9,0000.0,0005.69,0001.29,0000.71
2021-10-28 01:17:00,,0825.3,5.02,0.00,28.0,27.1,00.0,37.1,29.8,09.9,0000.0,0005.51,0001.25,0000.70
2021-10-28 01:18:00,,0825.3,4.99,0.00,28.0,27.1,00.0,37.1,29.8,10.0,0000.0,0004.95,0001.24,0000.70
2021-10-28 01:19:00,,0825.3,5.02,0.00,28.0,27.2,00.0,37.1,29.8,09.9,0000.0,0004.64,0001.22,0000.70
2021-10-28 01:20:00,,0825.4,5.00,0.00,28.0,27.2,00.0,37.1,29.8,09.9,0000.0,0005.16,0001.21,0000.70
2021-10-28 01:21:00,,0825.4,5.00,0.00,28.0,27.2,00.0,37.1,29.8,09.9,0000.0,0005.09,0001.20,0000.70
2021-10-28 01:22:00,,0825.4,4.99,0.00,28.0,27.2,00.0,37.1,29.8,09.9,0000.0,0004.97,0001.17,0000.69
2021-10-28 01:23:00,,0825.3,5.00,0.00,28.0,27.2,00.0,37.1,29.8,09.9,0000.0,0005.05,0001.13,0000.69
2021-10-28 01:24:00,,0825.3,4.99,0.00,28.0,27.2,00.0,37.1,29.8,09.9,0000.0,0003.94,0001.10,0000.69
2021-10-28 01:25:00,,0825.4,5.00,0.00,28.1,27.2,00.0,37.1,29.8,09.9,0000.0,0004.23,0001.04,0000.69
2021-10-28 01:26:00,,0825.3,5.00,0.00,28.1,27.2,00.0,37.1,29.8,09.9,0000.0,0004.70,0001.03,0000.69
2021-10-28 01:27:00,,0825.3,5.00,0.00,28.1,27.2,00.0,37.1,29.9,09.9,0000.0,0004.68,0001.02,0000.69
2021-10-28 01:28:00,,0825.4,5.00,0.00,28.1,27.2,00.0,37.1,29.9,09.9,0000.0,0004.51,0000.99,0000.69
2021-10-28 01:29:00,,0825.4,5.00,0.00,28.1,27.2,00.0,37.1,29.9,09.9,0000.0,0004.92,0001.04,0000.69
2021-10-28 01:30:00,,0825.4,5.00,0.00,28.1,27.2,00.0,37.1,29.8,09.9,0000.0,0005.13,0001.07,0000.69
2021-10-28 01:31:00,,0825.5,4.99,0.00,28.1,27.2,00.0,37.1,29.9,09.8,0000.0,0004.89,0001.08,0000.70
2021-10-28 01:32:00,,0825.5,5.02,0.00,28.1,27.2,00.0,37.1,29.9,09.8,0000.0,0004.53,0001.09,0000.70
2021-10-28 01:33:00,,0825.5,4.99,0.00,28.1,27.2,00.0,37.1,29.9,09.8,0000.0,0004.64,0001.10,0000.70
2021-10-28 01:34:00,,0825.4,4.99,0.00,28.1,27.2,00.0,37.1,29.9,09.9,0000.0,0004.77,0001.09,0000.71
2021-10-28 01:35:00,,0825.4,5.00,0.00,28.1,27.2,00.0,37.1,29.9,09.8,0000.0,0004.71,0001.07,0000.71
2021-10-28 01:36:00,,0825.4,4.99,0.00,28.1,27.2,00.0,37.1,29.9,09.9,0000.0,0003.95,0001.07,0000.71
2021-10-28 01:37:00,,0825.4,5.00,0.00,28.1,27.2,00.0,37.1,29.9,09.9,0000.0,0003.39,0001.11,0000.72
2021-10-28 01:38:00,,0825.4,4.99,0.00,28.1,27.2,00.0,37.1,29.8,09.9,0000.0,0003.61,0001.11,0000.72
2021-10-28 01:39:00,,0825.4,5.00,0.00,28.0,27.2,00.0,37.1,29.8,09.9,0000.0,0003.82,0001.19,0000.73
2021-10-28 01:40:00,,0825.4,4.98,0.00,28.0,27.2,00.0,37.1,29.8,09.9,0000.0,0003.66,0001.18,0000.74
2021-10-28 01:41:00,,0825.4,4.99,0.00,28.0,27.1,00.0,37.1,29.8,09.9,0000.0,0003.19,0001.14,0000.74
2021-10-28 01:42:00,,0825.5,5.02,0.00,28.0,27.1,00.0,37.1,29.7,09.8,0000.0,0003.14,0001.13,0000.75
2021-10-28 01:43:00,,0825.5,5.01,0.00,27.9,27.0,00.0,37.0,29.6,09.8,0000.0,0003.09,0001.11,0000.74
2021-10-28 01:44:00,,0825.5,4.99,0.00,27.8,26.9,00.0,37.0,29.6,09.9,0000.0,0003.14,0001.11,0000.75
2021-10-28 01:45:00,,0825.6,5.01,0.00,27.8,26.9,00.0,37.0,29.5,09.9,0000.0,0003.08,0001.14,0000.76
2021-10-28 01:46:00,,0825.6,5.00,0.00,27.8,26.8,00.0,37.0,29.5,09.9,0000.0,0003.66,0001.19,0000.76
2021-10-28 01:47:00,,0825.6,5.00,0.00,27.7,26.8,00.0,37.0,29.5,09.9,0000.0,0004.72,0001.19,0000.76
2021-10-28 01:48:00,,0825.6,5.00,0.00,27.7,26.7,00.0,36.9,29.4,10.0,0000.0,0005.95,0001.19,0000.77
2021-10-28 01:49:00,,0825.6,5.00,0.00,27.7,26.7,00.0,36.9,29.4,10.0,0000.0,0005.63,0001.19,0000.78
2021-10-28 01:50:00,,0825.6,5.01,0.00,27.7,26.7,00.0,36.9,29.4,10.0,0000.0,0005.59,0001.16,0000.77
2021-10-28 01:51:00,,0825.7,5.01,0.00,27.7,26.7,00.0,36.9,29.4,10.0,0000.0,0005.52,0001.13,0000.76
2021-10-28 01:52:00,,0825.7,5.00,0.00,27.7,26.7,00.0,36.8,29.4,10.0,0000.0,0005.46,0001.10,0000.76
2021-10-28 01:53:00,,0825.6,4.99,0.00,27.7,26.8,00.0,36.8,29.4,10.0,0000.0,0005.50,0001.11,0000.76
2021-10-28 01:54:00,,0825.6,5.01,0.00,27.7,26.8,00.0,36.8,29.4,10.0,0000.0,0005.71,0001.16,0000.77
2021-10-28 01:55:00,,0825.6,5.00,0.00,27.7,26.8,00.0,36.8,29.4,10.0,0000.0,0005.67,0001.21,0000.78
2021-10-28 01:56:00,,0825.7,4.99,0.00,27.6,26.8,00.0,36.8,29.4,10.0,0000.0,0005.58,0001.24,0000.79
2021-10-28 01:57:00,,0825.7,5.00,0.00,27.6,26.8,00.0,36.8,29.4,10.0,0000.0,0005.47,0001.25,0000.80
2021-10-28 01:58:00,,0825.7,5.01,0.00,27.6,26.7,00.0,36.8,29.4,09.9,0000.0,0004.48,0001.27,0000.81
2021-10-28 01:59:00,,0825.7,5.00,0.00,27.6,26.7,00.0,36.8,29.4,09.9,0000.0,0003.06,0001.33,0000.82
